Theta_e
313 312 314 314 314 313 313 312 313 316 318 320 321 323 324 326 326 327 329 330 331 331 331 330 331 331 332 332 334 334 335 338 340 340 339 338 342 344 345 344 345 347 348 347
313 313 312 313 313 312 312 313 314 314 315 319 322 322 323 325 326 326 327 329 330 331 331 332 331 332 332 332 332 335 338 339 343 340 339 340 342 344 345 345 347 348 348 347
313 312 312 312 312 312 312 313 313 313 314 316 319 321 323 323 324 326 326 327 329 330 330 331 331 332 330 330 332 334 337 339 340 341 340 345 347 347 347 347 348 348 347 347
313 312 313 310 312 312 312 312 311 312 314 316 318 322 323 323 324 324 325 326 328 329 329 330 329 333 330 329 329 332 334 337 339 344 339 346 346 347 346 347 348 348 347 347
312 313 313 314 311 311 311 311 311 311 313 315 315 319 321 323 323 325 325 326 327 327 328 328 328 328 326 327 328 330 331 334 338 344 341 345 347 345 346 346 349 348 347 347
312 314 314 313 313 311 311 310 311 311 312 315 315 317 320 322 324 324 325 326 326 326 326 326 326 326 326 324 325 327 330 334 339 344 347 347 347 348 346 348 349 348 347 346
312 312 314 312 314 314 311 312 311 313 315 314 315 318 319 320 321 322 322 324 324 324 324 324 325 325 326 325 326 326 329 333 341 347 347 347 348 349 351 351 349 348 347 347
314 315 313 313 313 314 313 312 312 316 315 315 316 317 319 319 320 322 322 323 323 323 324 325 326 328 330 329 327 326 329 337 346 347 348 349 351 349 350 350 348 347 345 344
313 313 311 312 314 313 314 314 313 313 313 317 318 317 319 320 320 321 322 322 322 324 327 329 332 335 335 330 327 329 337 342 347 348 349 350 351 350 349 348 346 343 341 342
311 312 311 313 315 312 313 313 317 315 315 313 317 317 318 319 320 321 322 322 323 324 325 328 335 340 338 332 329 335 340 345 347 349 350 350 349 347 347 346 343 341 340 339
309 310 311 311 315 315 314 315 314 314 316 315 318 318 318 319 320 322 323 323 323 323 324 329 340 340 339 336 338 340 344 347 348 348 348 348 347 346 345 343 342 341 340 338
311 314 311 310 310 312 312 314 316 321 320 315 315 316 317 321 321 321 322 322 322 323 323 326 340 339 341 341 344 346 346 347 347 348 347 345 344 343 342 341 340 339 338 337
312 313 316 312 311 315 315 315 315 315 317 318 321 321 319 323 323 322 322 321 321 321 322 325 339 340 343 344 345 346 346 346 346 344 343 343 342 341 340 338 338 337 336 336
311 314 313 317 314 314 315 314 312 314 317 316 317 315 318 318 321 320 319 319 320 319 321 324 331 342 344 343 344 345 345 344 343 342 341 341 340 338 337 336 337 337 336 336
313 316 313 313 312 312 311 310 310 310 312 312 314 313 315 317 316 319 317 317 317 318 321 323 327 343 344 344 343 343 343 342 341 340 339 338 336 336 336 337 336 335 335 334
313 316 314 313 312 311 310 310 310 310 311 311 312 312 312 313 315 315 315 316 316 317 320 322 325 342 343 342 343 342 341 340 339 338 335 335 335 336 336 337 336 335 334 334
313 314 315 315 312 314 313 312 316 316 312 313 313 313 313 314 314 315 315 316 317 317 321 322 327 335 343 342 342 341 340 339 337 335 334 334 334 335 335 335 335 334 334 333
314 316 316 315 316 317 312 315 313 316 315 316 317 317 316 316 316 316 317 316 317 319 321 327 331 336 342 342 340 340 339 337 334 333 333 333 333 334 334 334 335 334 337 336
315 313 317 319 318 315 314 316 314 316 316 314 317 318 319 319 321 320 318 316 317 322 327 328 331 337 341 341 339 340 338 335 333 332 332 332 332 333 333 333 334 337 337 336
316 311 315 316 319 320 318 315 313 311 315 314 313 315 317 317 324 323 324 324 324 324 326 329 332 333 342 341 341 339 337 333 332 332 331 332 332 332 333 335 336 337 336 335
318 315 316 317 319 318 315 314 312 318 321 314 314 315 315 319 320 320 320 322 322 324 327 329 333 335 343 341 341 339 335 332 332 331 331 330 331 332 334 335 336 336 335 334
319 318 317 317 320 321 314 315 317 314 315 314 315 315 317 316 317 318 319 320 323 326 329 331 335 338 342 341 341 338 334 331 331 331 330 330 332 331 331 332 335 335 335 334
317 315 319 320 319 316 315 315 315 314 314 313 314 314 315 315 316 318 319 321 325 327 330 333 337 341 341 340 340 337 332 331 331 331 330 330 331 333 334 333 334 334 334 333
314 314 317 316 315 314 312 313 313 314 313 312 311 313 314 314 315 317 318 321 325 327 331 332 338 342 341 340 339 335 331 331 331 331 331 331 333 334 333 334 332 334 334 333
316 315 316 316 314 313 311 311 312 312 311 310 312 313 314 315 317 317 320 324 326 329 332 333 339 343 341 341 337 334 329 331 331 330 331 331 334 335 334 331 331 334 333 332
317 317 317 318 315 313 312 311 312 313 312 312 313 314 313 314 316 317 323 324 324 326 332 335 340 341 341 339 336 332 329 331 332 331 331 332 333 334 335 334 331 332 330 328
Wind_Speed
10 14 15 18 19 23 23 27 34 31 25 29 30 32 36 30 26 27 25 22 24 24 22 26 17 18 19 18 19 21 22 21 18 17 16 18 19 19 19 20 19 20 20 22
14 15 17 17 21 25 24 26 30 29 31 27 25 31 34 28 29 28 29 26 21 19 20 17 21 20 18 20 20 24 22 22 18 18 20 19 17 18 18 19 19 20 20 20
14 16 19 19 19 19 22 24 25 29 26 28 31 27 33 32 28 26 28 30 30 28 27 23 20 20 20 21 23 24 22 19 19 20 17 13 11 12 17 18 18 19 19 20
16 15 11 15 22 21 23 22 25 24 23 22 28 23 28 27 28 29 26 27 29 26 20 20 22 20 21 24 26 24 24 21 20 19 18 17 16 15 18 19 18 19 19 19
18 19 19 20 20 19 22 20 24 26 24 27 30 22 23 23 28 26 26 26 23 22 26 28 23 23 28 30 27 25 23 21 21 20 19 18 18 17 16 18 21 17 19 19
21 18 20 19 18 19 18 21 26 24 21 22 30 27 25 22 20 23 19 19 18 18 19 19 22 31 29 23 24 22 21 22 21 20 18 19 19 16 17 19 19 19 19 19
22 17 13 9 18 17 17 20 15 17 17 22 26 26 22 21 28 23 19 22 22 16 12 16 20 17 20 22 21 20 20 19 21 19 18 20 18 14 17 21 21 21 20 20
10 16 12 13 13 17 18 18 14 18 17 18 24 25 23 29 32 8 8 12 7 6 12 10 12 13 13 16 16 19 18 20 20 19 19 19 19 19 20 21 20 18 19 17
13 12 21 21 12 12 15 19 22 23 21 14 13 25 27 23 32 24 20 8 8 3 8 9 9 9 12 12 14 19 17 19 19 19 20 20 22 21 20 17 19 16 15 16
15 19 17 10 19 15 15 18 10 8 18 19 16 21 19 23 13 16 13 8 4 5 8 7 4 6 10 12 15 18 18 20 20 21 21 23 21 19 18 18 16 16 14 13
16 18 21 16 13 16 9 15 17 12 14 13 10 12 19 26 25 19 17 10 3 4 7 6 6 5 9 10 15 18 20 21 23 23 23 22 21 20 20 19 17 16 14 14
19 13 18 22 23 11 7 13 6 5 12 14 16 16 22 21 6 27 13 8 4 7 9 10 9 3 5 11 16 19 21 23 24 24 23 22 22 22 20 18 16 15 15 13
8 7 11 17 6 20 8 18 8 12 17 18 11 10 15 14 19 14 10 4 3 9 10 11 10 2 4 12 17 20 22 23 24 24 24 23 22 20 18 17 15 14 13 13
8 15 16 17 24 10 9 16 14 14 10 14 20 20 11 28 18 12 3 5 7 12 9 9 9 4 6 14 18 20 22 23 24 24 23 22 20 19 17 15 14 14 14 13
5 11 18 20 22 25 21 16 16 19 19 18 22 18 14 15 25 25 10 10 14 14 8 10 10 7 6 5 20 21 22 23 23 23 22 20 19 18 17 15 14 14 13 12
5 10 14 17 20 20 22 20 19 19 22 24 25 24 18 14 19 20 14 15 14 10 9 11 9 7 6 6 9 21 22 23 22 21 21 20 19 18 17 15 14 14 14 15
4 8 11 15 14 13 13 11 16 18 17 15 24 21 20 20 16 14 13 13 13 12 9 10 9 3 12 9 7 18 22 22 21 21 20 19 18 17 16 16 15 14 12 15
5 5 4 8 9 10 4 8 11 16 18 16 19 23 21 19 20 18 17 16 14 9 10 9 9 6 19 15 14 18 22 22 21 20 19 18 18 17 15 15 14 15 12 11
12 2 4 4 5 14 6 2 1 3 11 17 13 19 22 24 23 20 10 13 13 7 7 9 10 6 15 20 23 21 22 21 20 19 18 18 17 16 15 12 15 13 13 12
9 4 3 4 5 4 0 5 2 3 5 4 10 12 16 15 11 9 18 16 11 11 11 10 12 12 23 22 24 23 22 21 20 19 18 17 17 15 14 12 11 11 13 14
3 3 5 8 6 3 3 9 4 3 5 15 13 12 13 14 14 20 17 17 14 14 13 14 10 8 21 21 21 22 23 20 20 20 18 16 16 14 15 12 10 12 13 14
4 4 3 3 4 3 8 3 1 7 10 16 17 15 16 15 19 18 18 18 17 13 14 13 5 9 22 22 22 23 21 22 22 21 19 18 16 15 13 11 12 11 13 13
4 6 4 4 5 14 13 10 10 10 14 13 19 17 15 16 16 14 16 18 16 13 13 15 3 14 20 22 22 23 23 23 22 21 21 19 16 17 14 11 12 12 12 13
7 9 6 9 8 14 16 10 11 11 12 17 16 17 15 18 17 17 15 15 13 12 11 14 8 13 14 24 25 25 24 24 24 22 22 20 18 12 12 11 9 15 12 12
12 12 10 14 9 17 14 17 17 14 15 17 17 17 17 17 15 15 16 16 13 12 15 9 10 16 19 23 26 25 25 25 24 24 21 19 21 15 12 11 11 15 8 7
8 9 5 7 14 13 17 17 19 20 17 16 16 13 11 12 17 16 17 13 13 14 16 10 12 21 24 27 27 25 26 25 24 22 21 19 19 14 17 12 12 14 12 11
Wind_Direction
285 269 257 266 266 262 271 271 273 272 265 244 256 241 244 238 237 255 257 240 229 241 248 242 236 240 229 226 235 247 255 252 239 242 242 234 225 218 219 218 208 200 199 201
273 255 265 272 274 278 276 275 271 271 266 274 271 254 254 245 234 233 247 253 244 245 248 242 234 236 238 240 237 244 240 243 232 240 243 251 226 218 215 206 199 197 195 195
291 298 300 284 273 264 267 269 274 278 280 259 260 257 260 258 249 231 238 244 247 248 245 243 248 241 240 242 241 233 231 230 228 228 231 230 238 212 199 194 191 195 191 191
289 288 268 275 269 258 265 269 277 272 270 259 248 256 251 245 250 244 238 241 245 241 250 253 253 252 248 247 244 229 224 220 221 217 219 206 213 202 205 192 189 183 186 188
288 291 285 281 263 262 272 277 275 263 261 259 256 256 248 235 244 238 239 246 248 251 242 241 243 246 244 243 235 228 225 219 218 202 206 198 213 207 193 189 160 173 182 182
284 310 267 276 275 275 287 280 277 255 253 243 244 243 244 242 245 231 233 231 234 244 249 253 253 248 242 242 242 229 211 209 209 205 201 197 200 222 182 171 163 169 169 177
318 301 299 338 289 263 254 269 271 257 246 245 239 245 242 252 255 268 279 244 234 233 248 252 244 240 232 226 232 224 208 203 204 197 192 193 199 187 173 159 172 167 167 177
303 313 339 354 303 280 277 260 265 262 263 252 242 244 245 235 252 223 262 264 149 195 245 245 250 247 246 229 213 210 198 200 188 187 184 180 176 178 175 181 167 175 172 176
308 309 312 292 272 271 282 261 251 266 259 276 285 286 232 240 219 240 227 227 207 196 268 257 273 265 255 226 201 189 188 185 178 175 169 166 174 169 169 152 155 157 161 153
293 297 301 326 332 261 240 260 289 259 270 261 269 257 256 215 220 214 196 185 150 244 257 277 298 297 264 216 185 180 178 172 168 162 161 164 164 161 148 153 166 158 157 160
300 283 289 282 222 261 242 244 245 259 249 272 295 282 226 209 196 221 165 136 142 308 317 310 24 312 245 173 167 174 170 163 158 159 160 157 155 152 154 156 151 155 158 165
316 305 280 279 283 252 288 270 272 224 270 278 250 265 309 275 194 195 126 131 38 345 340 327 65 330 209 173 152 159 158 156 158 159 155 153 150 151 151 153 156 159 167 175
344 292 309 283 267 14 360 325 234 250 279 254 290 285 285 102 102 98 105 88 319 338 341 339 67 34 220 159 156 153 156 157 156 154 151 150 149 150 151 156 159 166 168 177
295 267 258 273 293 155 237 240 258 264 270 257 258 269 269 293 131 136 137 9 300 306 317 2 2 76 257 157 152 156 159 153 155 152 151 148 150 151 152 156 163 168 168 169
207 268 273 273 279 283 279 280 277 270 269 273 275 275 263 274 309 311 5 315 293 299 334 350 336 108 208 266 156 160 152 155 153 151 148 150 151 152 151 153 166 162 166 158
275 267 288 287 285 285 287 278 259 257 268 266 274 275 276 267 256 283 304 288 289 303 323 321 323 121 170 270 179 156 155 154 154 149 151 154 154 154 152 156 156 163 172 157
258 278 290 280 298 320 279 306 336 333 271 302 290 290 297 287 267 272 273 286 288 286 297 305 292 4 159 208 226 159 156 155 154 156 154 154 154 152 156 159 166 173 164 163
222 248 244 278 290 262 305 29 313 312 298 296 306 300 297 296 298 285 270 276 285 304 289 315 319 342 167 168 152 171 156 157 161 157 156 156 159 155 160 168 160 173 158 165
200 204 268 269 261 270 285 52 288 273 294 313 318 306 316 341 333 288 265 265 270 294 300 290 295 346 194 154 170 181 161 164 163 159 158 159 158 158 164 160 153 164 164 167
160 179 262 296 290 295 129 21 272 180 240 359 322 309 307 311 279 55 3 353 342 312 293 289 299 312 172 164 186 171 164 169 164 156 156 157 156 158 149 162 156 161 167 163
276 180 228 260 260 213 310 2 118 227 22 319 310 301 301 291 293 316 312 319 306 288 290 282 284 284 166 166 200 171 166 171 163 156 149 152 148 134 142 148 156 164 162 164
265 314 311 285 275 337 311 347 300 306 304 316 305 305 289 276 289 290 302 298 289 295 285 277 269 252 160 175 200 169 170 167 159 157 151 152 145 154 147 155 156 158 151 159
302 331 282 212 270 293 293 301 291 285 317 315 308 307 302 299 288 282 282 284 287 295 296 286 242 185 155 187 195 168 171 166 163 157 148 150 149 134 145 156 158 151 157 165
297 297 271 310 335 330 349 324 315 332 323 312 299 298 289 277 276 274 275 278 278 270 271 296 195 169 164 199 183 167 170 168 163 153 155 156 140 147 154 157 165 148 155 173
285 295 294 297 318 331 323 334 328 329 333 316 303 291 269 267 269 278 281 278 276 292 283 290 203 162 182 204 172 165 172 170 162 160 160 163 145 168 149 105 68 127 120 156
282 273 311 303 313 325 322 319 352 338 316 292 290 302 289 279 282 279 280 286 294 281 282 280 211 165 190 186 165 166 174 169 165 161 164 175 153 176 142 147 93 109 125 134